Current Version              Previous Version:    01  02  03  04  05  06  07  08  09  10  11  12  13  14  15  16  17  18  19  20  21  22  23  24  25  26  27  28  29  30  
   31  32  33  34  35  36  37  38  39  40  41  42  43  44  45  46  47  48  49  50  51  52  53  54  55  56  57  58  59  60  

[Printable]
462
ASUS44 KEWX 191910
RWRTX
SOUTH TEXAS REGIONAL WEATHER ROUNDUP
NATIONAL WEATHER SERVICE AUSTIN/SAN ANTONIO TX
200 PM CDT FRI SEP 19 2014

NOTE: "FAIR" INDICATED FEW OR NO CLOUDS BELOW 12,000 FEET WITH NO
SIGNIFICANT WEATHER AND/OR OBSTRUCTIONS TO VISIBILITY.

* - THESE STATIONS ARE NOT NWS OR FAA STATIONS...AND ARE NOT SUBJECT
    TO NWS AND FAA QUALITY CONTROL.

TXZ171-172-183>190-192000-
TEXAS HILL COUNTRY AND EDWARDS PLATEAU

CITY           SKY/WX    TMP DP  RH WIND       PRES   REMARKS
JUNCTION       LGT RAIN  78  71  79 NE12      29.93F
*LLANO         FOG       72  72 100 CALM      30.00S VSB 1
BURNET         CLOUDY    77  71  82 E6        29.98F
*HORSESHOE BAY RAIN      79  73  81 CALM      29.95F
*KERRVILLE     SUNNY     81  73  76 E10       29.93F
*FREDERICKSBRG LGT RAIN  71  70  96 E5        29.95F
*ROCKSPRINGS   MOSUNNY   88  66  48 SE10      29.96F HX  90
*BOERNE STAGE  CLOUDY    79  72  78 N5        29.94F
*CASTROVILLE   CLOUDY    89  69  52 CALM      29.89F HX  93
HONDO          MOSUNNY   88  69  53 E7        29.90F HX  92
*UVALDE        MOSUNNY   88  75  65 E7        29.88F HX  97
DEL RIO        MOSUNNY   88  73  61 E9        29.84F HX  95
LAUGHLIN AFB   MOSUNNY   88  73  61 SE12      29.85F HX  96
CARRIZO SPRGS  PTSUNNY   88  72  58 E8        29.82F HX  94
$$

TXZ173-191>194-202-209-217>225-228-192000-
CENTRAL AND SOUTH CENTRAL TEXAS

CITY           SKY/WX    TMP DP  RH WIND       PRES   REMARKS
GEORGETOWN     CLOUDY    84  73  70 N8        29.93F HX  91
AUSTIN/BERGSTM CLOUDY    79  73  82 S6        29.90F
AUSTIN/MABRY   LGT RAIN  82  74  76 NE6       29.92F
*AUSTIN/EXEC   PTSUNNY   82  73  74 NE10      29.92F
*LAGO VISTA    PTSUNNY   81  73  76 E5        29.95F
SAN MARCOS     SUNNY     81  72  74 NE10      29.91F
NEW BRAUNFELS  CLOUDY    86  72  62 NE7       29.88F HX  92
RANDOLPH AFB   PTSUNNY   83  74  75 E5        29.89F
PT SAN ANTONIO CLOUDY    88  72  58 NE7       29.87F HX  95
SAN ANTONIO    CLOUDY    86  72  62 N10       29.90F HX  92
STINSON FIELD  CLOUDY    89  72  56 NE8       29.86F HX  96
*PLEASANTON    CLOUDY    90  71  53 NW6       29.86F HX  96
*LA GRANGE     MOSUNNY   85  75  71 CALM      29.88F HX  93
*GIDDINGS      MOSUNNY   84  72  68 E5        29.93F
*GONZALES      CLOUDY    81  75  82 S3        29.89F
$$

TXZ163>164-176>182-195>201-210>213-226-227-235-192000-
SOUTHEAST TEXAS

CITY           SKY/WX    TMP DP  RH WIND       PRES   REMARKS
COLLEGE STN    PTSUNNY   83  73  72 NE7       29.91F
*BRYAN         PTSUNNY  N/A N/A N/A E8        29.91F
*CALDWELL      PTSUNNY   82  73  74 NE7       29.94F
*CROCKETT      MOSUNNY   84  77  79 E5        29.96F HX  94
*BRENHAM       PTSUNNY   83  74  75 NE3       29.91F
HUNTSVILLE     PTSUNNY   83  73  72 E6        29.92F
CONROE         MOSUNNY   82  73  74 VRB6      29.92F
HOUSTON BUSH   PTSUNNY   82  74  76 E9        29.91S
HOUSTON HOBBY  CLOUDY    78  74  87 SE6       29.90F
*HOUSTON SW AP CLOUDY    72  68  88 SE3       29.91S
PEARLAND       LGT RAIN  79  74  84 E6        29.92S
HOUSTON HOOKS  CLOUDY    82  74  76 NE6       29.90F
ELLINGTON FLD  CLOUDY    79  75  89 SE2       29.92F
SUGAR LAND     CLOUDY    81  74  79 CALM      29.90F
*HOUSTON EXEC  CLOUDY    81  81 100 S3        29.91F HX  91
*CLEVELAND MUN HVY RAIN  79  76  92 CALM      29.92F
*WHARTON       PTSUNNY   80  74  82 SE5       29.90F
$$

TXZ214>216-236>238-192000-
THE UPPER TEXAS COAST

CITY           SKY/WX    TMP DP  RH WIND       PRES   REMARKS
*ORANGE        CLOUDY    80  77  90 N3        29.93F
PORT ARTHUR    PTSUNNY   84  74  71 E6        29.91F HX  91
GALVESTON      CLOUDY    82  75  79 N6        29.92F
ANGLETON         N/A    N/A N/A N/A MISG      29.91F
*BAY CITY      PTSUNNY   82  82  99 E3        29.90S HX  95
PALACIOS       PTSUNNY   81  74  79 SE10      29.88F
$$

TXZ229>234-239>247-192000-
TEXAS COASTAL BEND AND RIO GRANDE PLAINS

CITY           SKY/WX    TMP DP  RH WIND       PRES   REMARKS
VICTORIA       PTSUNNY   83  76  79 E12       29.89F HX  91
*BEEVILLE      PTSUNNY   91  71  51 CALM      29.84F HX  97
ROCKPORT       MOSUNNY   82  76  81 NE15      29.86F
*PORT ARANSAS  PTSUNNY   84  76  76 E8        29.85S HX  93
*PORT LAVACA   CLOUDY    78  75  91 SE7       29.89F
*INGLESIDE     PTSUNNY   91  74  57 E15       29.84S HX  99
CORPUS CHRISTI CLOUDY    84  77  79 E15       29.84S HX  94
CORPUS NAS     PTSUNNY   86  81  85 E9        29.83F HX 102
*ROBSTOWN      MOSUNNY   92  73  53 S3        29.83F HX 101
ALICE          MOSUNNY   91  73  55 CALM      29.82F HX  99
KINGSVILLE NAS PTSUNNY   93  78  61 VRB6      29.82F HX 108
COTULLA        MOSUNNY   94  67  41 E10       29.82F HX  97
*FAITH RANCH   MOSUNNY   86  73  66 E9        29.84F HX  93
LAREDO         MOSUNNY   92  74  55 E7        29.83F HX 101
$$

TXZ248>255-192000-
DEEP SOUTH TEXAS

CITY           SKY/WX    TMP DP  RH WIND       PRES   REMARKS
BROWNSVILLE    MOSUNNY   92  76  59 S9        29.81F HX 104
PORT ISABEL    PTSUNNY   90  75  61 SE15      29.81F HX 100
*SOUTH PADRE   MOSUNNY   91  81  70 SE8       29.82F HX 110
HARLINGEN      MOSUNNY   92  74  55 S5        29.80F HX 101
*HEBBRONVILLE    N/A     89  71  55 SE8       29.83F HX  96
MCALLEN        PTSUNNY   90  76  63 VRB3      29.80F HX 101
*WESLACO       MOSUNNY   92  73  53 E8        29.80F HX 101
FALFURRIAS     MOSUNNY  N/A N/A N/A E7        29.80F
EDINBURG       MOSUNNY   93  73  51 SE5       29.80F HX 101
*ZAPATA        MOSUNNY   94  69  43 SE9       29.79F HX  99
$$

TXZ213>215-236>238-242>244-246-247-251-254-255-192000-
CMAN STATIONS

STATION/POSITION TIME  TEMP    WIND        PRES    WAVE
                       AIR SEA DIR/SP/G            HT/PER
                 (UTC) (F)     (DEG/KT/KT) (MB)    (FT/S)
SABINE PASS      1900   79 82  140/  5/  6 1013.4
SEA RIM ST PARK  1900   80     140/  4/  5 1013.5
NORTH JETTY/GLS  1900   85 83                N/A
EAGLE POINT      1900   78 80  100/  1/  2 1013.1
MORGANS POINT    1900   78     110/  5/  7 1013.0
MISSION/ARANSAS  1800           60/  8     1013.0
PORT O`CONNOR    1900          120/  9/ 10   N/A
PORT ARANSAS     1900   83 85   50/  9/ 10 1011.4
MALAQUITE BEACH  1900   84 86  100/  7/  8 1009.8
BAFFIN BAY       1900   85 87  120/  8/ 11 1010.2
PORT ISABEL      1900   85 84  110/  6/ 12 1010.2
$$

GMZ080-GMZ150>470-192000-
OFFSHORE BUOY REPORTS

STATION/POSITION TIME  TEMP    WIND        PRES    WAVE
                       AIR SEA DIR/SP/G            HT/PER
                 (UTC) (F)     (DEG/KT/KT) (MB)    (FT/S)
20 E GALVESTON   1900   79 82   80/  4/  4 1012.8    2/ 5
90 E PT ARANSAS  1800   84 85  100/  2/  4 1012.5    2/ 4
35 NE PT MANSFLD 1900   85 85  150/  4/  6 1010.0    3/ 6
200 E PT ISABEL  1900   85 86  220/ 14/ 16 1010.7    3/ 5
$$